CW4489 Marathon FL US current weather conditions

sailwx.info

Wind from 338 at 8 knots gusting 8

Air temperature 28.3° C
Dewpoint 21.1° C

Last reported at 2014-Oct-25 18:39 UTC.
Time now 2014-Oct-25 19:06 UTC

Location: N 24°44' W 081°02'.
View on Google Maps.

See reports from other nearby stations

  
Tides and Currents Weather Stations Pressure Air Temp Water Temp Dewpoint Dewpoint Depression Visibility Wind Speed Wind Dir Waves Ship Positions
date/time (UTC)wind fromknots sea level pressurealtimeterstation pressurevisibilityair tempwater tempwave heightnotes
2014-Oct-25 18:39 338 8 gusting 8 28.3
2014-Oct-25 18:29 013 3 gusting 8 28.9
2014-Oct-25 18:09 047 2 gusting 7 28.9
2014-Oct-25 17:49 045 6 gusting 6 28.3
2014-Oct-25 17:39 044 6 gusting 8 28.3
2014-Oct-25 17:29 021 5 gusting 8 28.3
2014-Oct-25 17:09 036 2 gusting 8 27.8
2014-Oct-25 16:59 360 3 gusting 8 27.8
2014-Oct-25 16:39 038 3 gusting 7 27.2
2014-Oct-25 15:59 027 2 gusting 7 26.7
2014-Oct-25 15:49 032 4 gusting 8 26.7
2014-Oct-25 15:29 338 6 gusting 8 26.1
2014-Oct-25 15:09 055 1 gusting 8 26.1
2014-Oct-25 14:43 024 5 gusting 7 25.6
2014-Oct-25 06:59 355 13 gusting 13 23.3
2014-Oct-25 06:49 010 8 gusting 14 23.3
2014-Oct-25 06:39 012 8 gusting 12 23.3
2014-Oct-25 06:29 343 11 gusting 12 23.3
2014-Oct-25 06:19 005 6 gusting 13 23.3
2014-Oct-25 06:09 005 5 gusting 13 23.3
2014-Oct-25 05:49 351 6 gusting 13 23.3
2014-Oct-25 05:39 027 4 gusting 13 23.3
2014-Oct-25 05:29 330 6 gusting 13 23.9
2014-Oct-25 05:19 029 4 gusting 13 23.9
2014-Oct-25 05:09 044 7 gusting 13 23.9
2014-Oct-25 04:59 355 9 gusting 14 23.9
2014-Oct-25 04:49 031 3 gusting 10 23.9
2014-Oct-25 04:39 005 8 gusting 12 23.9
2014-Oct-25 04:29 016 10 gusting 13 23.9
2014-Oct-25 04:19 005 7 gusting 12 23.9
2014-Oct-25 04:09 348 6 gusting 11 23.9
2014-Oct-25 03:49 005 7 gusting 11 24.4
2014-Oct-25 03:39 355 7 gusting 13 24.4
2014-Oct-25 03:29 005 6 gusting 12 24.4
2014-Oct-25 02:59 009 12 gusting 13 24.4
2014-Oct-25 02:49 023 3 gusting 8 24.4
2014-Oct-25 02:39 351 6 gusting 13 24.4
2014-Oct-25 02:29 346 6 gusting 10 25.0
2014-Oct-25 02:19 016 9 gusting 11 25.0
2014-Oct-25 01:59 014 3 gusting 8 25.0
2014-Oct-25 01:39 077 5 gusting 10 25.0
2014-Oct-25 01:29 017 8 gusting 9 25.0
2014-Oct-25 01:09 015 8 gusting 13 25.0
2014-Oct-25 00:59 036 8 gusting 10 25.6
2014-Oct-25 00:29 028 9 gusting 13 25.6
2014-Oct-25 00:19 032 6 gusting 11 25.6
2014-Oct-25 00:09 038 6 gusting 10 25.6
2014-Oct-24 23:39 034 5 gusting 10 25.6
2014-Oct-24 23:29 350 3 gusting 12 25.6
2014-Oct-24 23:19 042 4 gusting 12 25.6
2014-Oct-24 23:09 014 4 gusting 8 25.6
2014-Oct-24 22:59 023 3 gusting 9 25.6
2014-Oct-24 22:49 014 7 gusting 8 25.6
2014-Oct-24 22:39 038 7 gusting 11 25.6
2014-Oct-24 22:29 058 5 gusting 10 25.6
2014-Oct-24 22:19 046 5 gusting 14 25.6
2014-Oct-24 22:09 030 8 gusting 11 25.6
2014-Oct-24 21:59 041 6 gusting 14 25.6
2014-Oct-24 21:39 020 4 gusting 18 26.1
2014-Oct-24 21:09 005 5 gusting 14 25.6
2014-Oct-24 20:59 031 6 gusting 16 26.1
2014-Oct-24 20:49 009 8 gusting 16 26.1
2014-Oct-24 20:29 355 6 gusting 14 26.7
2014-Oct-24 20:19 060 3 gusting 17 26.1
2014-Oct-24 20:09 038 9 gusting 13 26.1
2014-Oct-24 19:59 360 4 gusting 14 26.1
2014-Oct-24 19:39 038 7 gusting 14 26.1
2014-Oct-24 19:29 038 3 gusting 16 26.1
2014-Oct-24 19:19 020 13 gusting 15 26.1
2014-Oct-24 19:09 022 6 gusting 19 26.7
2014-Oct-24 18:39 355 6 gusting 13 26.1
2014-Oct-24 18:29 034 4 gusting 13 26.1
2014-Oct-24 18:09 016 6 gusting 13 25.6
2014-Oct-24 17:59 013 10 gusting 13 25.6
2014-Oct-24 17:49 042 4 gusting 15 25.0
2014-Oct-24 17:39 040 11 gusting 15 25.0
2014-Oct-24 17:29 360 13 gusting 15 25.0
2014-Oct-24 17:19 005 12 gusting 14 25.0
2014-Oct-24 17:09 005 9 gusting 15 25.6
2014-Oct-24 16:29 005 5 gusting 9 25.0
2014-Oct-24 16:19 009 2 gusting 11 25.0
2014-Oct-24 15:59 334 7 gusting 12 24.4
2014-Oct-24 15:49 019 6 gusting 10 24.4
2014-Oct-24 15:39 026 5 gusting 8 24.4
2014-Oct-24 15:09 035 2 gusting 7 24.4
2014-Oct-24 14:59 031 2 gusting 9 24.4
2014-Oct-24 14:49 036 2 gusting 10 24.4
2014-Oct-24 14:29 044 3 gusting 9 24.4
2014-Oct-24 14:19 033 4 gusting 10 24.4
2014-Oct-24 13:49 046 2 gusting 11 23.9
2014-Oct-24 13:39 052 5 gusting 12 23.9
2014-Oct-24 13:29 040 6 gusting 9 23.9
2014-Oct-24 13:09 016 2 gusting 10 23.9
2014-Oct-24 12:59 040 2 gusting 8 23.9
2014-Oct-24 12:49 040 6 gusting 9 23.9
2014-Oct-24 12:09 073 1 gusting 6 23.9
2014-Oct-24 11:49 046 23.9
2014-Oct-24 11:39 024 3 gusting 8 23.9
2014-Oct-24 11:09 005 3 gusting 8 23.9
2014-Oct-24 10:59 040 6 gusting 6 23.9
2014-Oct-24 10:39 040 1 gusting 9 23.9
2014-Oct-24 10:29 042 6 gusting 9 23.9
2014-Oct-24 10:19 040 2 gusting 8 23.9
2014-Oct-24 10:09 038 2 gusting 7 23.9
2014-Oct-24 09:49 040 4 gusting 6 23.9
2014-Oct-24 09:39 005 6 gusting 9 23.9
2014-Oct-24 09:19 038 3 gusting 8 24.4
2014-Oct-24 08:59 015 3 gusting 9 23.9
2014-Oct-24 08:49 055 3 gusting 11 23.9
2014-Oct-24 08:39 028 3 gusting 7 23.9
2014-Oct-24 08:09 046 10 gusting 10 23.9
2014-Oct-24 07:59 037 2 gusting 9 24.4
2014-Oct-24 07:39 051 2 gusting 8 24.4
2014-Oct-24 07:19 038 2 gusting 9 24.4
2014-Oct-24 07:09 069 9 gusting 9 24.4
2014-Oct-24 06:59 023 7 gusting 9 24.4
2014-Oct-24 06:49 059 8 gusting 10 24.4
2014-Oct-24 06:39 064 2 gusting 8 24.4
2014-Oct-24 06:29 043 2 gusting 8 24.4
2014-Oct-24 06:19 048 2 gusting 8 24.4
2014-Oct-24 05:49 044 0 gusting 8 24.4
2014-Oct-24 05:39 051 1 gusting 7 24.4
2014-Oct-24 05:29 057 3 gusting 6 24.4
2014-Oct-24 05:19 042 2 gusting 6 24.4
2014-Oct-24 04:49 032 6 gusting 6 24.4
2014-Oct-24 04:39 084 3 gusting 3 24.4
2014-Oct-24 04:29 061 1 gusting 5 24.4
2014-Oct-24 04:09 051 24.4
2014-Oct-24 03:59 062 2 gusting 2 24.4
2014-Oct-24 03:49 046 1 gusting 5 24.4
2014-Oct-24 03:39 076 1 gusting 3 24.4
2014-Oct-24 03:29 075 0 gusting 5 24.4
2014-Oct-24 03:09 044 1 gusting 6 25.0
2014-Oct-24 02:49 068 2 gusting 6 25.0
2014-Oct-24 02:39 072 3 gusting 6 24.4
2014-Oct-24 02:29 074 24.4
2014-Oct-24 02:19 077 1 gusting 5 24.4
2014-Oct-24 02:09 082 0 gusting 5 24.4
2014-Oct-24 01:59 074 0 gusting 5 24.4
2014-Oct-24 01:39 069 1 gusting 8 24.4
2014-Oct-24 01:29 082 4 gusting 6 24.4
2014-Oct-24 01:19 061 5 gusting 8 24.4
2014-Oct-24 01:09 040 3 gusting 6 24.4
2014-Oct-24 00:59 055 5 gusting 7 24.4
2014-Oct-24 00:49 080 1 gusting 8 24.4
2014-Oct-24 00:19 037 2 gusting 8 25.0
2014-Oct-23 23:49 038 0 gusting 8 24.4
2014-Oct-23 23:39 053 2 gusting 10 24.4
2014-Oct-23 23:29 052 1 gusting 9 23.9
2014-Oct-23 23:19 059 6 gusting 8 23.9
2014-Oct-23 22:59 049 2 gusting 6 23.9
2014-Oct-23 22:39 062 1 gusting 6 24.4
2014-Oct-23 22:29 071 5 gusting 7 24.4
2014-Oct-23 22:19 067 2 gusting 6 23.9
2014-Oct-23 22:09 019 5 gusting 7 24.4
2014-Oct-23 21:59 043 3 gusting 8 24.4
2014-Oct-23 21:39 036 2 gusting 8 23.9
2014-Oct-23 21:29 065 24.4
2014-Oct-23 21:19 061 0 gusting 3 24.4
2014-Oct-23 21:09 086 24.4
2014-Oct-23 21:00 130 2 gusting 6 23.9
2014-Oct-23 20:39 089 24.4
2014-Oct-23 20:29 031 2 gusting 6 24.4
2014-Oct-23 19:49 086 5 gusting 9 24.4
2014-Oct-23 19:29 060 5 gusting 8 24.4
2014-Oct-23 19:19 093 2 gusting 8 24.4
2014-Oct-23 19:09 077 3 gusting 6 24.4